Regional Weather Roundup
Issued by NWS

Home | Current Version | Previous Version | Graphics & Text | Print | Product List | Glossary On
Versions: 1 2 3 4 5 6 7 8 9 10 11 12 13 14 15 16 17 18 19 20 21 22 23 24 25 26 27 28 29 30 31 32 33 34 35 36 37 38 39 40 41 42 43 44 45 46 47 48 49
000
ASUS45 KCYS 200210
RWRWY

WYOMING REGIONAL WEATHER ROUNDUP
NATIONAL WEATHER SERVICE CHEYENNE WY
700 PM MST FRI DEC 19 2014

NOTE:  "FAIR" INDICATES FEW OR NO CLOUDS BELOW 12,000 FEET
WITH NO SIGNIFICANT WEATHER AND/OR OBSTRUCTIONS TO VISIBILITY.

WYZ001-200300-
YELLOWSTONE NATIONAL PARK

CITY           SKY/WX    TMP DP  RH WIND       PRES   REMARKS
LK YELLOWSTONE   N/A     26  22  84 CALM      30.01F
W YELLOWSTONE  NOT AVBL

$$
WYZ002>013-054>058-071-098>099-200300-
NORTHERN WYOMING

CITY           SKY/WX    TMP DP  RH WIND       PRES   REMARKS
JACKSON        CLOUDY    30  28  93 S14       30.03F WCI  20
CODY           MOCLDY    36  25  64 N5        29.89F WCI  32
GREYBULL       FAIR      19  15  84 S5        29.96F WCI  12
WORLAND        FAIR       8   6  92 NE5       29.95F WCI   0
SHERIDAN       FAIR      29  19  66 CALM      29.86S
BUFFALO        FAIR      32  14  47 SW8       29.88F WCI  25
GILLETTE       FAIR      34  20  56 SE5       29.89F WCI  30
HULETT           N/A    N/A N/A N/A MISG        N/A
NEWCASTLE      FAIR      32  21  64 CALM      29.95S

$$
WYZ014>020-022>026-101>103-200300-
CENTRAL WYOMING

CITY           SKY/WX    TMP DP  RH WIND       PRES   REMARKS
BIG PINEY      CLOUDY    27  20  75 E6        30.06S WCI  20
PINEDALE       CLOUDY    28  23  80 NW3       30.08R
DUBOIS         NOT AVBL
LANDER         FAIR      10   6  84 VRB5      29.97R WCI   2
RIVERTON       FAIR       9   5  84 CALM      29.99R
CASPER         FAIR      31  22  69 SW18      29.97R WCI  19
DOUGLAS        FAIR      34  22  61 W6        29.95F WCI  29

$$
WYZ021-027>030-104>119-200300-
SOUTHERN WYOMING

CITY           SKY/WX    TMP DP  RH WIND       PRES   REMARKS
EVANSTON       MOCLDY    33  21  61 SW9       30.08R WCI  25
KEMMERER       CLOUDY    32  23  69 W5        30.08S WCI  27
FORT BRIDGER   CLOUDY    34  23  63 SW6       30.10S WCI  29
ROCK SPRINGS   CLOUDY    29  21  72 S6        30.08F WCI  23
DIXON          FAIR      16  12  85 CALM      30.18S
RAWLINS        FAIR      25  16  68 SW22G28   30.03F WCI  10
SARATOGA       CLOUDY    27  19  74 SE10      30.08S WCI  17
LARAMIE        FAIR      23  13  65 SW15      30.02S WCI  10
CHEYENNE       FAIR      31  13  47 SW7       30.00S WCI  24
TORRINGTON     FAIR     N/A N/A N/A W7        29.98S
PINE BLUFFS    FAIR      34  18  51 W13       30.02S WCI  25

$$


USA.gov is the U.S. government's official web portal to all federal, state and local government web resources and services.